www.pogodaiklimat.ru

Погода и климат >> Архив погоды >> Ирак >> Ханакин


ПОГОДА в Ханакине

  • Прогноз погоды в Ханакине
  • Монитор погоды в Ханакине

АРХИВ ПОГОДЫ в Ханакине

Время (UTC), дата Ветер
(напр.,м/с)
 
Видим.   Явления Облачность Т
(С)
Тd
(С)
f
(%)
Тe
(С)
Тes
(С)
Комфортность P
(гПа)
Po
(гПа)
Тmin
(С)
Tmax
(С)
R
(мм)
R24
(мм)
S
(см)
12 12.06 З 2 10 км ясно +42.0 +15.5 21 +43 +56 опасность
перегрева
1003.6 981.9
15 12.06 штиль 0 10 км ясно +38.9 +15.4 25 +40 +42 очень
душно
1004.1 982.1
18 12.06 штиль 0 10 км ясно +33.2 +13.4 30 +34 +34 очень
жарко
1004.9 982.5 +44.0
03 13.06 штиль 0 10 км ясно +25.4 +13.4 47 +27 +29 жарко 1005.2 982.2
06 13.06 штиль 0 10 км ясно +35.5 +13.5 27 +36 +54 опасность
солнечного
удара
1004.9 982.7 +21.0
12 13.06 З 3 10 км ясно +41.8 +15.5 22 +43 +54 опасность
перегрева
1002.9 981.2
15 13.06 штиль 0 10 км ясно +37.7 +13.3 23 +38 +39 очень
жарко
1003.3 981.3
03 14.06 штиль 0 10 км ясно +32.0 +13.4 32 +33 +35 жарко 1005.4 982.9
06 14.06 ЮВ 3 10 км ясно +39.0 +13.4 22 +39 +50 очень
жарко
1002.8 980.9 +25.0
09 14.06 З 3 10 км ясно +43.5 +15.5 20 +45 +63 опасность
перегрева
1002.8 981.2
12 14.06 З 2 10 км ясно +44.0 +15.6 19 +45 +58 опасность
перегрева
1000.9 979.3
15 14.06 штиль 0 10 км ясно +42.5 +15.6 21 +44 +45 опасность
перегрева
1000.1 978.5
18 14.06 штиль 0 10 км ясно +34.4 +13.3 28 +35 +35 очень
жарко
1000.1 977.9 +46.0
03 15.06 штиль 0 10 км ясно +29.0 +14.4 41 +31 +33 жарко 1001.5 978.9
06 15.06 ЮВ 2 10 км ясно +40.5 +14.4 22 +41 +54 опасность
перегрева
1000.1 978.3 +25.5
09 15.06 З 2 10 км ясно +44.7 +17.6 21 +47 +69 опасность
перегрева
999.1 977.6
12 15.06 З 3 10 км ясно +45.1 +17.8 21 +48 +59 опасность
перегрева
998.8 977.4
15 15.06 ЮВ 1 10 км ясно +43.6 +15.6 20 +45 +46 опасность
перегрева
998.7 977.2
06 16.06 ЮВ 2 10 км ясно +41.4 +14.6 21 +42 +55 опасность
перегрева
999.9 978.2 +27.0
09 16.06 Ю 1 10 км ясно +43.7 +15.6 20 +45 +70 опасность
перегрева
998.8 977.3
15 16.06 ЮЗ 3 10 км ясно +43.6 +17.5 22 +46 +47 опасность
перегрева
999.5 978.0
18 16.06 штиль 0 10 км ясно +40.4 +16.5 25 +42 +42 опасность
перегрева
999.9 978.1 +47.5
06 17.06 штиль 0 10 км ясно +38.7 +13.1 22 +39 +56 опасность
солнечного
удара
1001.4 979.5 +28.5
09 17.06 ЮЗ 2 10 км ясно +42.9 +14.7 19 +43 +65 опасность
перегрева
1000.5 978.9
12 17.06 З 2 10 км ясно +43.1 +15.7 20 +44 +57 опасность
перегрева
1002.3 980.7
18 17.06 штиль 0 10 км ясно +38.9 +14.5 24 +40 +40 очень
душно
1003.0 981.1 +45.5
03 18.06 штиль 0 10 км ясно +30.5 +13.3 35 +32 +33 жарко 1004.9 982.3
06 18.06 ЮВ 1 10 км ясно +37.0 +13.5 25 +37 +53 опасность
солнечного
удара
1004.3 982.2 +26.5
09 18.06 ЮЗ 2 10 км ясно +42.9 +14.8 20 +44 +65 опасность
перегрева
1003.7 982.0
12 18.06 З 2 10 км ясно +42.6 +15.7 21 +44 +57 опасность
перегрева
1002.8 981.1
15 18.06 штиль 0 10 км ясно +39.9 +17.6 27 +43 +44 опасность
перегрева
1003.1 981.2
18 18.06 штиль 0 10 км ясно +37.3 +14.8 26 +38 +38 душно 1003.7 981.6 +44.8
06 19.06 ЮВ 1 10 км ясно +35.1 +14.8 30 +37 +52 опасность
солнечного
удара
1003.5 981.3 +23.5
09 19.06 ЮЗ 2 10 км ясно +40.0 +15.8 24 +41 +63 опасность
перегрева
1003.0 981.1

 

Местоположение метеостанции Ханакин (Ирак): широта 34.30 долгота 45.43 высота над уровнем моря 202 м.

В архиве по умолчанию представлена погода в Ханакине за последнюю неделю. Архивные данные за месяц целиком и за предыдущие месяцы, начиная с января 2011 года, Вы можете получить, выбрав интересующий диапазон дат из раскрывающегося списка и нажав кнопку "Ввод!".


*Определитесь, кто Вы:
робот инопланетянин человек

Внимание! Время в таблицах - всемирное. Для получения местного времени необходимо прибавить поправку, которая равна 3 ч.

Смотрите также архив погоды в соседних городах и на ближайших метеорологических станциях:

Погода в Тузе (Ирак) (96 км)
Погода в Эль-Халисе (Ирак) (98 км)
Погода в Айн Аль-Тамаре (Ирак) (106 км)
Погода в Халабче (Ирак) (111 км)
Погода в Иламе (Иран) (119 км)
Погода в Сулеймании (Ирак) (139 км)
Погода в Бадре (Ирак) (142 км)
Погода в Чамчамале (Ирак) (146 км)
Погода в Керманшахе (Иран) (155 км)
Погода в Эль-Азизии (Ирак) (157 км)

Пояснения к столбцам:

Ветер - указаны скорость ветра в м/с - средняя за 10 мин, порывы в срок и между сроками (в фигурных скобках) и направление, откуда дует ветер: С - северный, СВ - северо-восточный, В - восточный, ЮВ - юго-восточный, Ю - южный, ЮЗ - юго-западный, З - западный, СЗ - северо-западный.
Видимость - горизонтальная дальность видимости в метрах или километрах. При видимости от 1 до 10 км при отсутствии осадков обычно наблюдается дымка, при ухудшении видимости до 1 км и менее - туман. В сухую погоду видимость может ухудшаться дымом, пылью или мглою.
Явления - указаны атмосферные явления, наблюдавшиеся в срок или в последний час перед сроком; фигурными скобками обозначены явления, наблюдавшиеся между сроками (за 1-3 часа до срока); квадратными скобками обозначены град или гололедные отложения с указанием их диаметра в мм.
Облачность - указаны через наклонную черту общая и нижняя облачность в баллах и высота нижней границы облаков в метрах; квадратными скобками обозначены формы облаков: Ci - перистые, Cs - перисто-слоистые, Cc - перисто-кучевые, Ac - высококучевые, As - высокослоистые, Sc - слоисто-кучевые, Ns - слоисто-дождевые, Cu - кучевые, Cb - кучево-дождевые. Подробнее классификацию облаков см. в Атласе облаков (PDF).
T - Температура воздуха - температура, измеренная на высоте 2 м над землей.
Td - Температура точки росы - температура, при понижении до которой содержащийся в воздухе водяной пар достигнет насыщения.
f - Относительная влажность воздуха - влажноcть воздуха, измеренная на высоте 2 м над землей.
Te - Эффективная температура - температура, которую ощущает одетый по сезону человек в тени. Характеристика душности погоды. При расчете учитывается влияние влажности воздуха и скорости ветра на теплоощущения человека.
Tes - Эффективная температура на солнце - температура, которую ощущает человек, с поправкой на солнечный нагрев. Характеристика знойности погоды. Зависит от высоты солнца над горизонтом, облачности и скорости ветра. Ночью, в пасмурную погоду, а также при ветре 12 м/с и более поправка равна нулю.
P - Атмосферное давление - приведенное к уровню моря атмосферное давление.
Po - Атмосферное давление - измеренное на уровне метеостанции атмосферное давление.
Tmin - Минимальная температура - минимум температуры воздуха на высоте 2 м над землей.
Tmax - Максимальная температура - максимум температуры воздуха на высоте 2 м над землей.
R - Количество осадков - Количество выпавших осадков за период времени, мм. При наведении курсора мыши на число - период времени, за который выпало указанное количество осадков.
R24 - Количество осадков - Количество выпавших осадков за 24 часа, мм.
S - Снежный покров - Высота снежного покрова, см. При наведении курсора мыши на число - состояние снежного покрова и степень покрытия местности в баллах.